Simultaneous Nadir Overpasses (SNOs) Predictions

Prediction of SNOs between GOES-14 and AQUA Satellite Orbit:

Table of predicted SNOs for the next 14.0 days since TLE Epoch: 6/14/2019
Index Date Time (GOES-14) GOES-14 Lat,Lon AQUA Lat,Lon Distance(km) Time Diff (sec)
1 06/15/2019 08:39:12 -0.05,-104.49 0.28,-106.19 192.90 80
2 06/17/2019 08:29:41 -0.05,-104.50 -0.34,-103.23 144.67 80
3 06/17/2019 20:48:25 0.07,-104.65 -0.74,-108.43 430.15 80
4 06/19/2019 08:17:29 -0.04,-104.51 -0.97,-100.27 482.39 80
5 06/19/2019 20:36:13 0.07,-104.66 -0.11,-105.47 92.45 80
6 06/21/2019 20:26:41 0.07,-104.67 0.53,-102.51 245.49 80
7 06/22/2019 08:45:16 -0.09,-104.53 0.56,-107.67 357.10 80
8 06/24/2019 08:33:04 -0.08,-104.54 -0.07,-104.71 18.93 80
9 06/26/2019 08:23:32 -0.08,-104.56 -0.70,-101.76 319.51 80
10 06/26/2019 20:42:17 0.11,-104.72 -0.35,-106.96 254.45 80
11 06/28/2019 20:32:45 0.11,-104.73 0.29,-104.00 83.73 80




NCC Satellite Simultaneous Nadir Overpasses (SNOs) Prediction Service
